TimeHST,TemperatureF,Dew PointF,Humidity,Sea Level PressureIn,VisibilityMPH,Wind Direction,Wind SpeedMPH,Gust SpeedMPH,PrecipitationIn,Events,Conditions,WindDirDegrees,DateUTC
12:55 AM,68.7,63.3,83,29.98,10.0,Calm,Calm,-,N/A,,Clear,0,2013-08-20 10:55:00
1:55 AM,67.8,64.0,88,29.97,10.0,Calm,Calm,-,N/A,,Clear,0,2013-08-20 11:55:00
2:55 AM,66.9,63.3,88,29.95,10.0,NW,4.6,-,N/A,,Clear,310,2013-08-20 12:55:00
3:55 AM,66.4,63.1,89,29.94,10.0,Calm,Calm,-,N/A,,Clear,0,2013-08-20 13:55:00
4:55 AM,66.0,62.6,89,29.95,10.0,NNW,3.5,-,N/A,,Partly Cloudy,330,2013-08-20 14:55:00
5:55 AM,67.6,64.2,89,29.94,10.0,NNW,3.5,-,N/A,,Clear,340,2013-08-20 15:55:00
6:55 AM,67.3,63.7,88,29.95,10.0,Calm,Calm,-,N/A,,Clear,0,2013-08-20 16:55:00
7:55 AM,73.8,66.4,78,29.96,10.0,Calm,Calm,-,N/A,,Clear,0,2013-08-20 17:55:00
8:55 AM,78.1,66.7,68,29.96,10.0,East,3.5,-,N/A,,Clear,90,2013-08-20 18:55:00
9:55 AM,81.5,63.7,55,29.96,10.0,Variable,4.6,-,N/A,,Partly Cloudy,0,2013-08-20 19:55:00
10:55 AM,83.5,64.2,52,29.96,10.0,Calm,Calm,-,N/A,,Partly Cloudy,0,2013-08-20 20:55:00
11:55 AM,86.0,66.9,53,29.95,10.0,East,8.1,-,N/A,,Clear,80,2013-08-20 21:55:00
12:55 PM,81.7,66.6,60,29.95,10.0,North,5.8,-,N/A,,Mostly Cloudy,350,2013-08-20 22:55:00
1:55 PM,79.7,66.2,63,29.93,10.0,NNW,12.7,-,N/A,,Overcast,330,2013-08-20 23:55:00
2:55 PM,79.9,66.4,63,29.92,10.0,NNW,10.4,-,N/A,,Mostly Cloudy,330,2013-08-21 00:55:00
3:55 PM,79.0,66.6,66,29.91,10.0,North,10.4,-,N/A,,Overcast,360,2013-08-21 01:55:00
4:55 PM,79.0,66.9,66,29.91,10.0,East,5.8,-,N/A,,Overcast,80,2013-08-21 02:55:00
5:55 PM,77.2,66.9,71,29.92,10.0,ENE,6.9,-,N/A,,Overcast,60,2013-08-21 03:55:00
6:55 PM,76.6,67.1,72,29.92,10.0,East,5.8,-,N/A,,Overcast,80,2013-08-21 04:55:00
7:55 PM,75.9,66.9,74,29.93,10.0,East,6.9,-,N/A,,Mostly Cloudy,80,2013-08-21 05:55:00
8:55 PM,74.8,67.1,77,29.95,10.0,NE,3.5,-,N/A,,Clear,40,2013-08-21 06:55:00
9:55 PM,73.2,66.7,80,29.96,10.0,Calm,Calm,-,N/A,,Partly Cloudy,0,2013-08-21 07:55:00
10:55 PM,72.3,67.1,84,29.97,10.0,Calm,Calm,-,N/A,,Mostly Cloudy,0,2013-08-21 08:55:00
11:55 PM,72.0,66.9,84,29.96,10.0,Calm,Calm,-,N/A,,Mostly Cloudy,0,2013-08-21 09:55:00